1484834401.04,58567,3.94,74016.0,-6.79,-41.49,-41.87,0,*53
1484834402.25,58568,3.94,74014.5,-6.81,-41.41,-41.61,0,*5B
1484834403.45,58569,3.94,74014.3,-6.81,-41.11,-41.61,0,*5F
1484834404.69,58570,3.94,74014.0,-6.81,-41.67,-41.87,0,*5E
1484834405.93,58571,3.94,74010.3,-6.79,-41.41,-41.41,0,*56
1484834407.17,58572,3.94,74014.8,-6.81,-40.85,-40.91,0,*57
1484834408.38,58573,3.94,74014.5,-6.81,-41.29,-41.41,0,*5D
1484834409.62,58574,3.94,74016.5,-6.81,-40.85,-41.11,0,*58
1484834410.86,58575,3.94,74014.0,-6.81,-40.85,-41.03,0,*5A
1484834412.09,58576,3.94,74018.5,-6.81,-41.41,-41.81,0,*5A
1484834413.33,58577,3.94,74016.0,-6.81,-41.55,-41.73,0,*53
1484834414.53,58578,3.94,74026.8,-6.85,-41.41,-41.61,0,*5E
1484834415.79,58579,3.94,74026.8,-6.81,-41.67,-41.93,0,*52
1484834417.03,58580,3.94,74022.5,-6.85,-41.23,-41.41,0,*5F
1484834418.27,58581,3.94,74022.0,-6.81,-40.91,-40.97,0,*58
1484834419.51,58582,3.94,74016.5,-6.85,-40.97,-41.17,0,*50
1484834420.75,58583,3.94,74014.5,-6.81,-40.59,-41.03,0,*52
1484834421.98,58584,3.94,74012.5,-6.85,-40.85,-41.03,0,*50
1484834423.24,58585,3.94,74018.8,-6.81,-41.55,-41.93,0,*50
1484834424.47,58586,3.94,74012.5,-6.85,-41.73,-42.05,0,*5F
1484834425.73,58587,3.94,74008.8,-6.85,-41.93,-42.19,0,*5D
1484834426.99,58588,3.94,74008.5,-6.85,-41.23,-41.35,0,*54
1484834428.27,58589,3.94,74008.0,-6.91,-42.05,-42.45,0,*53
1484834429.54,58590,3.94,74016.3,-6.91,-42.31,-42.51,0,*59
1484834430.8,58591,3.94,74006.5,-6.91,-42.25,-42.45,0,*58
1484834432.04,58592,3.94,74004.5,-6.91,-41.99,-42.25,0,*59
1484834433.3,58593,3.94,74004.3,-6.93,-41.93,-42.37,0,*53
1484834434.56,58594,3.94,74014.0,-6.93,-42.31,-42.51,0,*5F
1484834435.81,58595,3.94,74004.5,-6.93,-41.73,-42.05,0,*5A
1484834437.02,58596,3.94,74006.5,-6.95,-42.13,-42.51,0,*5B
1484834438.23,58597,3.94,74004.5,-6.95,-42.13,-42.37,0,*5A
1484834439.47,58598,3.94,74010.0,-6.95,-42.37,-42.69,0,*58
1484834440.67,58599,3.94,74014.8,-6.99,-41.99,-42.25,0,*5A
1484834441.88,58600,3.94,74022.8,-6.99,-41.61,-41.99,0,*5A
1484834443.13,58601,3.94,74022.0,-7.01,-41.61,-41.93,0,*51
1484834444.37,58602,3.94,74022.5,-6.99,-41.23,-41.41,0,*5B
1484834445.63,58603,3.94,74024.0,-7.01,-41.35,-41.41,0,*5D
1484834446.89,58604,3.94,74024.8,-7.01,-41.17,-41.35,0,*59
1484834448.12,58605,3.94,74022.8,-6.99,-40.59,-40.91,0,*5C
1484834449.36,58606,3.94,74018.5,-6.99,-40.59,-40.91,0,*5F
1484834450.62,58607,3.94,74024.3,-6.99,-40.79,-40.97,0,*5A
1484834451.83,58608,3.94,74028.3,-6.99,-41.17,-41.41,0,*56
1484834453.07,58609,3.94,74030.8,-6.99,-41.03,-41.23,0,*56
1484834454.3,58610,3.94,74030.8,-6.99,-41.03,-41.23,0,*5E
1484834455.52,58611,3.94,74026.0,-6.99,-40.91,-41.17,0,*52
1484834456.75,58612,3.94,74024.3,-6.99,-40.97,-41.17,0,*57
1484834458.01,58613,3.94,74016.5,-7.01,-40.73,-40.97,0,*55
1484834459.24,58614,3.94,74020.0,-6.99,-40.79,-41.17,0,*51
1484834460.45,58615,3.94,74022.3,-6.99,-40.73,-40.91,0,*55
1484834461.68,58616,3.94,74014.8,-6.99,-40.59,-40.91,0,*5E
1484834462.92,58617,3.94,74016.0,-6.99,-40.59,-40.91,0,*5F
1484834464.15,58618,3.94,74016.8,-6.99,-40.79,-41.17,0,*5D
1484834465.38,58619,3.94,74024.8,-6.95,-41.29,-41.55,0,*52
1484834466.62,58620,3.94,74016.8,-6.95,-41.67,-41.73,0,*56
1484834467.87,58621,3.94,74022.3,-7.01,-41.73,-41.81,0,*53
1484834469.15,58622,3.94,74022.5,-7.01,-41.23,-41.55,0,*5C
1484834470.39,58623,3.94,74024.0,-6.99,-41.03,-41.23,0,*5E
1484834471.65,58624,3.94,74024.5,-6.99,-40.97,-41.23,0,*55
1484834472.91,58625,3.94,74020.0,-6.99,-41.23,-41.23,0,*5A
1484834474.15,58626,3.94,74018.5,-6.99,-41.03,-41.23,0,*5B
1484834475.41,58627,3.94,74024.8,-7.01,-40.79,-41.03,0,*54
1484834476.65,58628,3.94,74018.8,-6.99,-40.91,-40.97,0,*51
1484834477.91,58629,3.94,74014.3,-6.99,-40.59,-40.79,0,*54
1484834479.14,58630,3.94,74008.8,-6.99,-40.97,-41.17,0,*57
1484834480.38,58631,3.94,74008.5,-6.99,-41.03,-41.35,0,*5A
1484834481.64,58632,3.94,74006.3,-7.01,-41.35,-41.41,0,*5F
1484834482.89,58633,3.94,74010.3,-7.01,-41.81,-42.13,0,*55
1484834484.12,58634,3.94,74008.5,-7.01,-41.73,-41.99,0,*5E
1484834485.35,58635,3.94,74006.8,-7.01,-41.61,-41.99,0,*5C
1484834486.62,58636,3.94,74008.3,-7.01,-41.03,-41.35,0,*5D
1484834487.86,58637,3.94,74016.3,-7.01,-40.91,-41.03,0,*53
1484834489.09,58638,3.94,74018.5,-7.01,-41.17,-41.41,0,*55
1484834490.32,58639,3.94,74018.3,-7.05,-41.11,-41.29,0,*58
1484834491.55,58640,3.94,74016.8,-7.03,-41.23,-41.49,0,*57
1484834492.82,58641,3.94,74018.0,-7.03,-40.59,-40.97,0,*58
1484834494.08,58642,3.94,74018.8,-7.03,-40.79,-40.97,0,*59
1484834495.31,58643,3.94,74012.5,-7.03,-41.23,-41.61,0,*5E
1484834496.55,58644,3.94,74018.5,-7.03,-40.97,-41.03,0,*53
1484834497.75,58645,3.94,74016.8,-7.03,-41.29,-41.61,0,*52
1484834498.96,58646,3.94,74018.8,-7.03,-41.03,-41.29,0,*55
1484834500.22,58647,3.94,74024.3,-7.05,-40.85,-41.11,0,*56
1484834501.48,58648,3.94,74026.0,-7.05,-40.65,-40.97,0,*58
1484834502.68,58649,3.94,74020.3,-7.03,-40.65,-41.03,0,*53
1484834503.94,58650,3.94,74024.0,-7.05,-41.23,-41.29,0,*56
1484834505.17,58651,3.94,74024.3,-7.03,-40.79,-41.11,0,*54
1484834506.43,58652,3.94,74020.0,-7.03,-40.59,-40.79,0,*5A
1484834507.69,58653,3.94,74020.5,-7.03,-40.59,-40.97,0,*5B
1484834508.93,58654,3.94,74022.3,-7.03,-40.65,-40.97,0,*53
1484834510.16,58655,3.94,74026.3,-7.03,-40.79,-41.03,0,*53
1484834511.41,58656,3.94,74016.0,-7.03,-40.59,-40.79,0,*5E
1484834512.65,58657,3.94,74018.3,-7.03,-40.65,-40.97,0,*50
1484834513.88,58658,3.94,74022.0,-7.03,-40.47,-40.79,0,*5F
1484834515.08,58659,3.94,74028.3,-7.03,-40.47,-40.65,0,*53
1484834516.33,58660,3.94,74022.8,-7.01,-40.53,-40.79,0,*53
1484834517.62,58661,3.94,74018.0,-7.01,-41.35,-41.55,0,*5C
1484834518.85,58662,3.94,74018.3,-7.03,-40.97,-41.11,0,*54
1484834520.11,58663,3.94,74028.5,-7.05,-40.85,-41.11,0,*50
1484834521.34,58664,3.94,74026.0,-7.03,-40.79,-41.11,0,*52
1484834522.57,58665,3.94,74026.8,-7.03,-40.65,-40.85,0,*52
1484834523.8,58666,3.94,74022.3,-7.03,-40.97,-41.11,0,*50
1484834525.06,58667,3.94,74024.8,-7.03,-40.59,-40.79,0,*5C
1484834526.32,58668,3.94,74024.3,-7.03,-40.41,-40.59,0,*58
1484834527.55,58669,3.94,74022.3,-7.03,-40.47,-40.79,0,*5D
1484834528.83,58670,3.94,74020.3,-7.01,-40.79,-40.97,0,*5A
1484834530.1,58671,3.94,74020.3,-7.01,-41.03,-41.23,0,*59
1484834531.34,58672,3.94,74020.3,-7.03,-40.59,-41.03,0,*54
1484834532.59,58673,3.94,74026.8,-7.03,-40.59,-40.79,0,*59
1484834533.84,58674,3.94,74022.3,-7.03,-40.59,-40.79,0,*5E
1484834535.1,58675,3.94,74022.8,-7.03,-40.59,-40.85,0,*5C
1484834536.34,58676,3.94,74022.5,-7.03,-40.47,-40.59,0,*51
1484834537.57,58677,3.94,74018.8,-7.03,-40.47,-40.85,0,*51
1484834538.81,58678,3.94,74020.0,-7.03,-40.59,-40.65,0,*5F
1484834540.04,58679,3.94,74028.0,-7.03,-40.47,-40.85,0,*5F
1484834541.28,58680,3.94,74022.8,-7.03,-40.79,-41.03,0,*5B
1484834542.51,58681,3.94,74022.5,-7.03,-40.65,-40.97,0,*5B
1484834543.77,58682,3.94,74020.0,-7.03,-40.59,-40.85,0,*54
1484834545.0,58683,3.94,74024.0,-7.03,-40.29,-40.47,0,*5C
1484834546.28,58684,3.94,74022.0,-7.01,-40.41,-40.59,0,*58
1484834547.57,58685,3.94,74024.5,-7.01,-40.79,-40.97,0,*50
1484834548.83,58686,3.94,74022.0,-7.01,-40.79,-41.03,0,*5F
1484834550.1,58687,3.94,74020.8,-7.01,-40.59,-40.79,0,*50
1484834551.36,58688,3.94,74020.3,-7.01,-40.35,-40.41,0,*5E
1484834552.62,58689,3.94,74022.0,-7.01,-40.41,-40.73,0,*5D
1484834553.84,58690,3.94,74020.5,-6.99,-40.53,-40.79,0,*5C
1484834555.08,58691,3.94,74022.3,-7.01,-40.73,-41.03,0,*53
1484834556.3,58692,3.94,74026.5,-6.99,-40.53,-40.79,0,*5E
1484834557.53,58693,3.94,74024.3,-7.01,-40.73,-40.91,0,*5B
1484834558.78,58694,3.94,74024.8,-7.01,-40.53,-40.79,0,*58
1484834560.03,58695,3.94,74024.5,-7.01,-40.53,-40.79,0,*59
1484834561.31,58696,3.94,74020.0,-7.01,-40.59,-40.97,0,*50
1484834562.55,58697,3.94,74022.3,-6.99,-40.73,-40.97,0,*59
1484834563.81,58698,3.94,74022.8,-7.01,-40.79,-40.91,0,*5A
1484834565.01,58699,3.94,74020.8,-6.99,-40.53,-40.91,0,*53
1484834566.26,58700,3.94,74022.3,-7.01,-40.53,-40.79,0,*54
1484834567.51,58701,3.94,74026.3,-7.01,-40.53,-40.59,0,*57
1484834568.78,58702,3.94,74020.3,-6.99,-40.59,-40.97,0,*5C
1484834570.01,58703,3.94,74022.0,-7.01,-40.53,-40.91,0,*51
1484834571.24,58704,3.94,74022.8,-6.99,-40.35,-40.59,0,*52
1484834572.47,58705,3.94,74026.5,-6.99,-40.41,-40.73,0,*58
1484834573.72,58706,3.94,74022.8,-7.01,-40.53,-40.79,0,*52
1484834575.0,58707,3.94,74020.3,-7.01,-40.41,-40.79,0,*50
1484834576.24,58708,3.94,74030.0,-6.99,-40.73,-40.97,0,*5E
1484834577.44,58709,3.94,74026.0,-6.99,-40.53,-40.73,0,*57
1484834578.67,58710,3.94,74024.8,-7.01,-40.35,-40.53,0,*5D
1484834579.91,58711,3.94,74026.3,-6.99,-40.41,-40.53,0,*5F
1484834581.14,58712,3.94,74024.8,-6.99,-40.21,-40.53,0,*5A
1484834582.39,58713,3.94,74024.8,-7.01,-40.35,-40.41,0,*5D
1484834583.65,58714,3.94,74022.0,-7.01,-40.41,-40.73,0,*58
1484834584.92,58715,3.94,74020.0,-6.99,-40.41,-40.59,0,*51
1484834586.15,58716,3.94,74018.0,-6.99,-40.73,-40.97,0,*51
1484834587.39,58717,3.94,74024.8,-7.01,-40.91,-41.17,0,*55
1484834588.61,58718,3.94,74024.0,-6.99,-40.53,-40.79,0,*5D
1484834589.88,58719,3.94,74026.3,-6.99,-40.41,-40.59,0,*5D
1484834591.1,58720,3.94,74024.5,-6.99,-40.59,-40.73,0,*56
1484834592.3,58721,3.94,74022.3,-6.99,-40.53,-40.73,0,*5D
1484834593.55,58722,3.94,74022.5,-7.01,-40.53,-40.79,0,*54
1484834594.84,58723,3.94,74024.8,-7.01,-40.41,-40.59,0,*54
1484834596.1,58724,3.94,74032.3,-7.01,-40.41,-40.53,0,*59
1484834597.33,58725,3.94,74024.5,-6.99,-40.35,-40.41,0,*58
1484834598.6,58726,3.94,74028.5,-6.99,-40.41,-40.59,0,*51
1484834599.81,58727,3.94,74028.0,-6.99,-40.35,-40.53,0,*59
1484834601.01,58728,3.94,74028.0,-6.99,-40.35,-40.53,0,*56
1484834602.28,58729,3.94,74024.0,-6.99,-40.41,-40.59,0,*5E
1484834603.54,58730,3.94,74030.3,-6.99,-40.41,-40.59,0,*56
1484834604.75,58731,3.94,74026.0,-6.95,-40.15,-40.35,0,*50
1484834606.01,58732,3.94,74026.8,-6.95,-40.29,-40.29,0,*51
1484834607.21,58733,3.94,74030.3,-6.95,-40.35,-40.47,0,*55
1484834608.44,58734,3.94,74026.0,-6.93,-40.35,-40.47,0,*54
1484834609.64,58735,3.94,74030.8,-6.95,-40.53,-40.65,0,*53
1484834610.84,58736,3.94,74024.5,-6.95,-40.35,-40.47,0,*50
1484834612.05,58737,3.94,74024.0,-6.95,-40.35,-40.47,0,*51
1484834613.25,58738,3.94,74028.5,-6.95,-40.35,-40.53,0,*5B
1484834614.46,58739,3.94,74024.3,-6.95,-40.35,-40.65,0,*5F
1484834615.69,58740,3.94,74026.0,-6.95,-40.53,-40.85,0,*5F
1484834616.9,58741,3.94,74030.3,-6.95,-40.47,-40.65,0,*55
1484834618.1,58742,3.94,74022.5,-6.95,-40.35,-40.47,0,*53
1484834619.31,58743,3.94,74020.3,-6.95,-40.35,-40.53,0,*57
1484834620.51,58744,3.94,74024.0,-6.95,-40.35,-40.53,0,*50
1484834621.75,58745,3.94,74026.3,-6.93,-40.47,-40.65,0,*57
1484834622.95,58746,3.94,74022.5,-6.95,-40.47,-40.73,0,*55
1484834624.16,58747,3.94,74026.3,-6.95,-40.47,-40.65,0,*53
1484834625.36,58748,3.94,74024.0,-6.95,-40.53,-40.65,0,*59
1484834626.59,58749,3.94,74026.3,-6.95,-40.53,-40.85,0,*56
1484834627.79,58750,3.94,74022.3,-6.95,-40.47,-40.73,0,*52
1484834629.0,58751,3.94,74022.8,-6.95,-40.47,-40.73,0,*53
1484834630.21,58752,3.94,74024.8,-6.95,-40.47,-40.53,0,*52
1484834631.41,58753,3.94,74018.8,-6.95,-40.47,-40.65,0,*56
1484834632.64,58754,3.94,74020.5,-6.93,-40.47,-40.65,0,*57
1484834633.9,58755,3.94,74026.3,-6.93,-40.65,-40.85,0,*58
1484834635.13,58756,3.94,74024.8,-6.93,-40.47,-40.73,0,*52
1484834636.34,58757,3.94,74022.3,-6.95,-40.47,-40.65,0,*52
1484834637.54,58758,3.94,74028.8,-6.95,-40.47,-40.73,0,*5A
1484834638.8,58759,3.94,74026.3,-6.93,-40.47,-40.85,0,*54
1484834640.04,58760,3.94,74022.5,-6.93,-40.65,-40.91,0,*5B
1484834641.24,58761,3.94,74024.8,-6.95,-40.35,-40.47,0,*52
1484834642.47,58762,3.94,74026.8,-6.93,-40.35,-40.65,0,*57
1484834643.72,58763,3.94,74026.3,-6.95,-40.29,-40.29,0,*55
1484834644.96,58764,3.94,74026.5,-6.93,-40.53,-40.91,0,*5A
1484834646.19,58765,3.94,74022.8,-6.93,-40.65,-40.91,0,*5E
1484834647.39,58766,3.94,74022.0,-6.95,-40.47,-40.65,0,*50
1484834648.63,58767,3.94,74020.0,-6.93,-40.47,-40.73,0,*50
1484834649.83,58768,3.94,74020.3,-6.95,-40.47,-40.65,0,*5E
1484834651.06,58769,3.94,74022.5,-6.95,-40.53,-40.85,0,*54
1484834652.26,58770,3.94,74022.0,-6.95,-40.53,-40.65,0,*52
1484834653.49,58771,3.94,74024.3,-6.93,-40.47,-40.47,0,*50
1484834654.7,58772,3.94,74026.5,-6.95,-40.35,-40.73,0,*57
1484834655.93,58773,3.94,74024.0,-6.93,-40.47,-40.65,0,*52
1484834657.13,58774,3.94,74020.5,-6.95,-40.47,-40.65,0,*53
1484834658.34,58775,3.94,74024.0,-6.95,-40.35,-40.53,0,*52
1484834659.57,58776,3.94,74030.3,-6.93,-40.35,-40.53,0,*57
1484834660.8,58777,3.94,74028.0,-6.95,-40.29,-40.47,0,*58
1484834662.0,58778,3.94,74026.8,-6.95,-40.53,-40.73,0,*5D
1484834663.21,58779,3.94,74030.0,-6.95,-40.47,-40.65,0,*5E
1484834664.44,58780,3.94,74022.3,-6.93,-40.47,-40.65,0,*5E
1484834665.66,58781,3.94,74026.5,-6.93,-40.53,-40.65,0,*5A
1484834666.87,58782,3.94,74032.8,-6.95,-40.47,-40.65,0,*5A
1484834668.1,58783,3.94,74026.8,-6.93,-40.47,-40.65,0,*5D
1484834669.33,58784,3.94,74028.0,-6.93,-40.47,-40.73,0,*5D
1484834670.56,58785,3.94,74022.0,-6.93,-40.65,-40.91,0,*50
1484834671.8,58786,3.94,74026.3,-6.93,-40.73,-40.91,0,*54
1484834673.06,58787,3.94,74024.8,-6.93,-40.85,-41.11,0,*55
1484834674.32,58788,3.94,74028.0,-6.93,-40.47,-40.85,0,*58
1484834675.58,58789,3.94,74026.3,-6.93,-40.53,-40.85,0,*5C
1484834676.81,58790,3.94,74012.5,-6.93,-40.53,-40.91,0,*51
1484834678.05,58791,3.94,74020.8,-6.93,-40.91,-41.11,0,*57
1484834679.31,58792,3.94,74026.3,-6.93,-40.65,-40.85,0,*53
1484834680.57,58793,3.94,74026.8,-6.93,-40.73,-40.97,0,*56
1484834681.81,58794,3.94,74022.8,-6.93,-40.91,-41.11,0,*52
1484834683.07,58795,3.94,74016.0,-6.93,-41.17,-41.35,0,*5A
1484834684.34,58796,3.94,74012.5,-6.95,-40.85,-40.97,0,*5C
1484834685.54,58797,3.94,74018.8,-6.95,-40.65,-40.91,0,*55
1484834686.78,58798,3.94,74018.0,-6.95,-41.29,-41.35,0,*5C
1484834688.0,58799,3.94,74016.5,-6.95,-41.73,-42.05,0,*52
1484834689.24,58800,3.94,74018.0,-6.95,-41.17,-41.35,0,*5F
1484834690.45,58801,3.94,74016.8,-6.95,-40.91,-41.17,0,*51
1484834691.68,58802,3.94,74016.3,-6.95,-40.97,-41.17,0,*54
1484834692.92,58803,3.94,74016.8,-6.99,-41.03,-41.23,0,*52
1484834694.13,58804,3.94,74016.8,-6.99,-41.73,-41.99,0,*53
1484834695.38,58805,3.94,74012.8,-7.01,-41.61,-41.81,0,*58
1484834696.64,58806,3.94,74018.3,-7.01,-41.03,-41.23,0,*57
1484834697.87,58807,3.94,74016.5,-6.99,-41.61,-41.81,0,*5A
1484834699.12,58808,3.94,74018.3,-7.01,-41.73,-41.93,0,*55
1484834700.39,58809,3.94,74018.3,-7.03,-41.67,-41.67,0,*58
1484834701.6,58810,3.94,74020.5,-7.03,-41.41,-41.61,0,*52
1484834702.81,58811,3.94,74018.0,-7.03,-41.03,-41.29,0,*59
1484834704.05,58812,3.94,74016.8,-7.03,-41.03,-41.23,0,*50
1484834705.28,58813,3.94,74022.8,-7.05,-41.41,-41.41,0,*55
1484834706.5,58814,3.94,74024.5,-7.03,-41.03,-41.29,0,*5C
1484834707.73,58815,3.94,74016.5,-7.03,-40.79,-41.03,0,*59
1484834709.02,58816,3.94,74020.3,-7.05,-41.23,-41.23,0,*50
1484834710.26,58817,3.94,74014.5,-7.03,-40.85,-41.03,0,*58
1484834711.51,58818,3.94,74006.0,-7.05,-40.85,-41.11,0,*52
1484834712.8,58819,3.94,74010.8,-7.05,-40.97,-41.23,0,*51
1484834714.01,58820,3.94,74014.0,-7.03,-41.03,-41.29,0,*5B
1484834715.24,58821,3.94,74016.8,-7.05,-41.49,-41.61,0,*5E
1484834716.46,58822,3.94,74022.0,-7.05,-41.29,-41.41,0,*59
1484834717.7,58823,3.94,74018.3,-7.05,-41.41,-41.61,0,*54
1484834718.98,58824,3.94,74016.0,-7.05,-41.67,-41.67,0,*51
1484834720.21,58825,3.94,74014.5,-7.05,-41.49,-41.61,0,*5A
1484834721.45,58826,3.94,74018.3,-7.07,-40.85,-41.11,0,*5D
1484834722.68,58827,3.94,74014.3,-7.07,-40.85,-41.11,0,*5C
1484834723.91,58828,3.94,74014.5,-7.07,-41.17,-41.35,0,*5F
1484834725.12,58829,3.94,74014.5,-7.07,-41.11,-41.17,0,*58
1484834726.33,58830,3.94,74016.3,-7.07,-41.03,-41.17,0,*53
1484834727.54,58831,3.94,74008.8,-7.07,-41.17,-41.29,0,*5A
1484834728.77,58832,3.94,74018.8,-7.07,-41.35,-41.49,0,*5F
1484834729.99,58833,3.94,74016.5,-7.07,-41.03,-41.29,0,*5D
1484834731.2,58834,3.94,74016.3,-7.07,-40.91,-41.17,0,*5D
1484834732.44,58835,3.94,74014.0,-7.07,-40.85,-41.03,0,*5C
1484834733.67,58836,3.94,74016.5,-7.09,-41.03,-41.17,0,*5B
1484834734.88,58837,3.94,74022.8,-7.07,-41.11,-41.29,0,*5A
1484834736.09,58838,3.94,74020.0,-7.07,-40.91,-41.29,0,*5C
1484834737.3,58839,3.94,74022.0,-7.07,-41.11,-41.29,0,*54
1484834738.53,58840,3.94,74018.5,-7.07,-40.85,-41.03,0,*5E
1484834739.77,58841,3.94,74012.3,-7.09,-41.03,-41.17,0,*5B
1484834741.01,58842,3.94,74018.8,-7.07,-40.85,-41.03,0,*5C
1484834742.26,58843,3.94,74020.0,-7.09,-40.65,-40.85,0,*52
1484834743.49,58844,3.94,74022.0,-7.07,-41.29,-41.35,0,*58
1484834744.71,58845,3.94,74020.0,-7.07,-40.91,-41.11,0,*5D
1484834745.95,58846,3.94,74020.8,-7.09,-40.91,-41.11,0,*50
1484834747.2,58847,3.94,74016.8,-7.09,-41.29,-41.35,0,*55
1484834748.41,58848,3.94,74020.3,-7.07,-40.65,-41.03,0,*58
1484834749.66,58849,3.94,74020.3,-7.09,-41.17,-41.35,0,*56
1484834750.9,58850,3.94,74024.0,-7.07,-41.17,-41.35,0,*50
1484834752.1,58851,3.94,74016.8,-7.07,-41.11,-41.17,0,*57
1484834753.36,58852,3.94,74016.0,-7.09,-40.65,-40.85,0,*52
1484834754.61,58853,3.94,74022.0,-7.09,-40.65,-40.85,0,*53
1484834755.84,58854,3.94,74020.0,-7.09,-40.65,-40.73,0,*5D
1484834757.06,58855,3.94,74026.5,-7.09,-40.65,-40.73,0,*5C
1484834758.29,58856,3.94,74024.0,-7.09,-40.73,-40.91,0,*54
1484834759.5,58857,3.94,74024.5,-7.07,-40.73,-40.91,0,*5B
1484834760.76,58858,3.94,74022.3,-7.09,-40.65,-40.85,0,*58
1484834761.98,58859,3.94,74016.5,-7.09,-40.53,-40.73,0,*55
1484834763.19,58860,3.94,74018.8,-7.07,-40.73,-41.03,0,*55
1484834764.4,58861,3.94,74016.8,-7.07,-40.91,-41.29,0,*50
1484834765.64,58862,3.94,74014.8,-7.07,-41.17,-41.35,0,*51
1484834766.87,58863,3.94,74010.3,-7.09,-40.65,-41.03,0,*5F
1484834768.09,58864,3.94,74014.5,-7.09,-41.29,-41.49,0,*5F
1484834769.33,58865,3.94,74008.3,-7.07,-41.55,-41.87,0,*59
1484834770.59,58866,3.94,74010.3,-7.09,-41.03,-41.35,0,*5E
1484834771.82,58867,3.94,74006.8,-7.09,-40.73,-41.03,0,*5C
1484834773.08,58868,3.94,74006.8,-7.13,-41.17,-41.35,0,*5E
1484834774.31,58869,3.94,74008.3,-7.11,-41.17,-41.35,0,*5D
1484834775.52,58870,3.94,74008.8,-7.11,-41.41,-41.73,0,*54
1484834776.72,58871,3.94,74012.0,-7.11,-41.41,-41.61,0,*56
1484834777.95,58872,3.94,74014.5,-7.11,-41.23,-41.41,0,*53
1484834779.16,58873,3.94,74014.0,-7.11,-41.17,-41.41,0,*55
1484834780.37,58874,3.94,74012.0,-7.11,-40.91,-41.11,0,*58
1484834781.61,58875,3.94,74016.3,-7.11,-40.73,-40.97,0,*5A
1484834782.89,58876,3.94,74016.5,-7.13,-40.97,-41.35,0,*58
1484834784.17,58877,3.94,74014.8,-7.13,-40.97,-41.23,0,*5E
1484834785.42,58878,3.94,74020.3,-7.13,-41.17,-41.23,0,*58
1484834786.67,58879,3.94,74024.8,-7.13,-41.11,-41.35,0,*58
1484834787.93,58880,3.94,74018.5,-7.13,-41.17,-41.23,0,*5F
1484834789.18,58881,3.94,74018.0,-7.13,-40.79,-41.17,0,*50
1484834790.41,58882,3.94,74022.8,-7.15,-40.85,-41.17,0,*56
1484834791.66,58883,3.94,74016.0,-7.13,-40.97,-41.17,0,*52
1484834792.9,58884,3.94,74014.0,-7.13,-40.91,-41.11,0,*55
1484834794.11,58885,3.94,74016.8,-7.11,-40.91,-41.11,0,*56
1484834795.34,58886,3.94,74022.0,-7.13,-40.91,-41.17,0,*51
1484834796.57,58887,3.94,74022.3,-7.13,-40.73,-40.91,0,*53
1484834797.83,58888,3.94,74016.5,-7.13,-40.59,-40.91,0,*54
1484834799.11,58889,3.94,74022.5,-7.13,-40.79,-40.97,0,*51
1484834800.39,58890,3.94,74022.5,-7.13,-40.97,-41.35,0,*50
1484834801.67,58891,3.94,74022.0,-7.13,-40.97,-41.23,0,*56
1484834802.93,58892,3.94,74022.3,-7.13,-40.91,-40.97,0,*5D
1484834804.19,58893,3.94,74028.0,-7.13,-41.17,-41.35,0,*5A
1484834805.42,58894,3.94,74024.8,-7.13,-40.91,-41.11,0,*54
1484834806.65,58895,3.94,74034.8,-7.13,-40.73,-41.11,0,*59
1484834807.9,58896,3.94,74030.0,-7.13,-40.97,-41.17,0,*56
1484834809.18,58897,3.94,74030.5,-7.13,-40.97,-41.23,0,*50
1484834810.44,58898,3.94,74032.0,-7.13,-40.73,-40.97,0,*5B
1484834811.67,58899,3.94,74030.0,-7.13,-40.91,-41.11,0,*59
1484834812.93,58900,3.94,74028.0,-7.13,-40.79,-41.11,0,*5E
1484834814.16,58901,3.94,74032.0,-7.15,-40.97,-41.17,0,*5F
1484834815.42,58902,3.94,74028.8,-7.15,-40.79,-40.97,0,*55
1484834816.62,58903,3.94,74030.5,-7.15,-41.29,-41.41,0,*5A
1484834817.82,58904,3.94,74026.5,-7.15,-41.29,-41.49,0,*55
1484834819.05,58905,3.94,74024.5,-7.15,-40.97,-41.17,0,*5B
1484834820.29,58906,3.94,74020.3,-7.15,-41.03,-41.23,0,*53
1484834821.53,58907,3.94,74022.8,-7.15,-41.03,-41.23,0,*52
1484834822.76,58908,3.94,74020.8,-7.13,-40.73,-41.11,0,*5C
1484834824.02,58909,3.94,74024.5,-7.15,-40.79,-40.97,0,*5E
1484834825.23,58910,3.94,74030.5,-7.15,-41.03,-41.29,0,*5E
1484834826.44,58911,3.94,74022.0,-7.15,-41.41,-41.49,0,*5F
1484834827.65,58912,3.94,74022.8,-7.15,-41.17,-41.29,0,*59
1484834828.88,58913,3.94,74020.5,-7.17,-41.41,-41.61,0,*55
1484834830.09,58914,3.94,74026.3,-7.15,-41.03,-41.29,0,*5A
1484834831.35,58915,3.94,74022.3,-7.15,-40.79,-40.97,0,*53
1484834832.58,58916,3.94,74028.8,-7.15,-40.79,-41.03,0,*5C
1484834833.84,58917,3.94,74024.8,-7.17,-40.79,-41.03,0,*5F
1484834835.13,58918,3.94,74026.5,-7.17,-40.79,-40.97,0,*5C
1484834836.39,58919,3.94,74020.5,-7.17,-40.79,-41.03,0,*51
1484834837.63,58920,3.94,74020.0,-7.15,-41.03,-41.23,0,*57
1484834838.86,58921,3.94,74016.5,-7.15,-40.97,-41.17,0,*5D
1484834840.1,58922,3.94,74016.3,-7.15,-40.85,-41.29,0,*50
1484834841.3,58923,3.94,74022.5,-7.15,-41.17,-41.41,0,*55
1484834842.54,58924,3.94,74020.0,-7.17,-41.17,-41.29,0,*5E
1484834843.79,58925,3.94,74022.0,-7.17,-40.79,-41.17,0,*5B
1484834845.05,58926,3.94,74020.3,-7.21,-40.85,-40.91,0,*51
1484834846.31,58927,3.94,74022.3,-7.21,-40.85,-41.11,0,*59
1484834847.57,58928,3.94,74018.5,-7.21,-40.91,-41.23,0,*52
1484834848.83,58929,3.94,74020.5,-7.21,-40.65,-40.85,0,*55
1484834850.09,58930,3.94,74020.5,-7.21,-40.73,-40.85,0,*5A
1484834851.32,58931,3.94,74026.5,-7.21,-40.73,-41.11,0,*57
1484834852.58,58932,3.94,74026.5,-7.17,-41.03,-41.23,0,*56
1484834853.81,58933,3.94,74022.3,-7.21,-41.11,-41.29,0,*5B
1484834855.08,58934,3.94,74020.3,-7.21,-41.03,-41.35,0,*52
1484834856.34,58935,3.94,74032.0,-7.21,-40.91,-41.23,0,*5E
1484834857.6,58936,3.94,74032.3,-7.21,-40.85,-41.03,0,*5A
1484834858.86,58937,3.94,74030.0,-7.21,-40.85,-40.91,0,*51
1484834860.1,58938,3.94,74026.0,-7.21,-40.73,-40.91,0,*57
1484834861.38,58939,3.94,74028.0,-7.17,-40.59,-40.79,0,*5D
1484834862.61,58940,3.94,74028.3,-7.17,-40.47,-40.65,0,*51
1484834863.87,58941,3.94,74026.3,-7.17,-40.79,-41.03,0,*5C
1484834865.16,58942,3.94,74026.8,-7.17,-40.85,-40.97,0,*50
1484834866.42,58943,3.94,74024.5,-7.17,-40.65,-40.85,0,*5C
1484834867.64,58944,3.94,74030.0,-7.21,-40.65,-40.73,0,*57
1484834868.9,58945,3.94,74032.0,-7.17,-40.47,-40.79,0,*59
1484834870.18,58946,3.94,74032.5,-7.17,-40.59,-40.85,0,*56
1484834871.44,58947,3.94,74028.3,-7.17,-40.65,-40.97,0,*5B
1484834872.7,58948,3.94,74030.8,-7.17,-40.65,-40.97,0,*54
1484834873.97,58949,3.94,74020.5,-7.17,-40.65,-40.97,0,*55
1484834875.19,58950,3.94,74026.3,-7.15,-40.65,-40.79,0,*5F
1484834876.45,58951,3.94,74026.8,-7.17,-40.65,-40.97,0,*5C
1484834877.7,58952,3.94,74024.0,-7.17,-40.79,-41.17,0,*5B
1484834878.96,58953,3.94,74026.3,-7.17,-40.85,-41.17,0,*59
1484834880.22,58954,3.94,74028.5,-7.17,-40.79,-41.03,0,*58
1484834881.51,58955,3.94,74022.0,-7.17,-40.79,-40.97,0,*55
1484834882.79,58956,3.94,74028.5,-7.17,-40.59,-40.79,0,*54
1484834884.05,58957,3.94,74022.5,-7.17,-40.47,-40.59,0,*58
1484834885.31,58958,3.94,74028.0,-7.17,-40.65,-40.85,0,*56
1484834886.51,58959,3.94,74022.5,-7.15,-40.65,-41.03,0,*5A
1484834887.8,58960,3.94,74018.5,-7.17,-40.79,-40.97,0,*53
1484834889.09,58961,3.94,74018.8,-7.17,-40.79,-40.97,0,*52
1484834890.35,58962,3.94,74018.8,-7.21,-40.91,-41.23,0,*5C
1484834891.62,58963,3.94,74020.0,-7.21,-40.91,-41.23,0,*5D
1484834892.87,58964,3.94,74020.5,-7.21,-41.29,-41.35,0,*5F
1484834894.13,58965,3.94,74026.3,-7.21,-41.03,-41.23,0,*51
1484834895.34,58966,3.94,74024.0,-7.23,-40.73,-40.91,0,*5E
1484834896.56,58967,3.94,74020.0,-7.23,-41.03,-41.29,0,*5B
1484834897.84,58968,3.94,74026.0,-7.21,-41.35,-41.55,0,*58
1484834899.08,58969,3.94,74026.5,-7.23,-40.85,-41.03,0,*52
1484834900.34,58970,3.94,74028.8,-7.21,-41.23,-41.49,0,*5B
1484834901.6,58971,3.94,74026.5,-7.21,-41.11,-41.35,0,*50
1484834902.86,58972,3.94,74030.0,-7.21,-40.91,-41.23,0,*5D
1484834904.1,58973,3.94,74026.8,-7.21,-41.03,-41.29,0,*5C